Location: Unspecified
(48.5670°N, 0.0000°E)
Time: 16:15:49
(UTC+00:00)

Vanguard 2 Rocket - Pass Details

Date: 29 August 2019
Orbit: 554 x 3326 km, 32.9° (Epoch: 22 September)

Event Time Altitude Azimuth Distance (km) Brightness Sun altitude
Rises 01:26:57 0° 224° (SW) 4,174 - -28.9°
Reaches altitude 10° 01:29:43 10° 214° (SSW) 3,530 - -28.7°
Exits shadow 01:37:01 31° 162° (SSE) 2,972 9.1 -28.2°
Maximum altitude 01:37:49 32° 155° (SSE) 3,033 9.2 -28.1°
Drops below altitude 10° 01:50:18 10° 102° (ESE) 5,528 11.1 -27.1°
Sets 01:56:02 0° 94° (E) 6,902 11.7 -26.7°
